EW2654 Weather Reports


time (UTC)temp
F
wind
direction
speed
knots
gust
knots
rain 1hr
in
rain 24hr
in
rain mn
in
humidity
%
barometer
mb
20260504100106 39 258 11.3 20.0 0.00 0.71 0.02 96 980.6
20260504081542 39 200 7.8 23.5 0.02 0.71 0.02 96 978.0
20260504044533 38 111 17.4 31.3 0.00 0.69 0.00 96 977.5
20260504043028 39 192 18.2 29.5 0.00 0.69 0.00 96 978.4
20260504041514 39 160 13.9 26.9 0.00 0.69 0.00 96 978.8
20260504040017 39 157 16.5 26.1 0.00 0.69 0.00 95 979.5
20260504034509 39 156 13.9 25.2 0.00 0.69 0.00 95 980.2
20260504033005 39 147 13.9 22.6 0.00 0.69 0.00 95 980.8
20260504031502 39 132 10.4 21.7 0.00 0.69 0.00 96 981.4
20260504030059 40 128 13.0 21.7 0.00 0.69 0.00 97 982.0
20260504024558 40 157 12.2 24.3 0.00 0.69 0.69 98 982.4
20260504023053 41 163 12.2 20.0 0.00 0.69 0.69 98 983.1
20260504021550 41 154 10.4 20.0 0.01 0.69 0.69 99 983.5
20260504020059 41 152 11.3 20.9 0.01 0.69 0.69 99 983.9
20260504014551 42 153 13.0 23.5 0.02 0.69 0.69 99 984.6
20260504013042 40 149 11.3 26.9 0.03 0.69 0.69 99 985.0
20260504011547 40 99 13.0 24.3 0.03 0.68 0.68 99 985.3
20260504010041 40 91 13.0 25.2 0.04 0.68 0.68 99 985.7
20260504004538 39 89 13.9 27.8 0.05 0.66 0.66 99 986.3
20260504003035 39 70 10.4 20.0 0.14 0.65 0.65 99 987.1
20260504001536 38 109 10.4 22.6 0.19 0.65 0.65 99 987.8
20260504000029 38 85 8.7 19.1 0.28 0.64 0.64 99 989.0
20260503234528 37 72 9.6 19.1 0.31 0.60 0.60 99 989.6
20260503233023 37 86 9.6 17.4 0.26 0.51 0.51 98 990.3
20260503231522 37 10 5.2 15.6 0.23 0.46 0.46 98 991.5
20260503230018 38 46 7.8 16.5 0.13 0.35 0.35 99 993.1
20260503224515 37 56 6.1 15.6 0.11 0.28 0.28 99 993.7
20260503223011 37 103 5.2 16.5 0.14 0.24 0.24 98 995.0
20260503221509 37 67 6.1 12.2 0.14 0.22 0.22 98 995.3
20260503220008 37 111 5.2 13.9 0.16 0.21 0.21 98 995.6
20260503214522 37 103 6.1 16.5 0.13 0.17 0.17 98 995.9
20260503213005 36 76 9.6 20.0 0.06 0.10 0.10 98 996.0
20260503211502 36 112 7.0 15.6 0.03 0.07 0.07 98 997.5
20260503210100 36 82 7.8 16.5 0.02 0.06 0.06 98 997.9
20260503204558 36 80 6.1 15.6 0.02 0.04 0.04 98 999.0
20260503203056 36 109 7.0 15.6 0.02 0.04 0.04 97 999.5
20260503201553 35 57 6.1 14.8 0.02 0.04 0.04 97 1000.7
20260503200101 35 73 7.0 13.0 0.01 0.03 0.03 97 1001.2
20260503194556 35 62 3.5 13.0 0.00 0.02 0.02 97 1001.8
20260503193057 34 111 7.0 13.0 0.01 0.02 0.02 96 1002.4
20260503191549 34 85 4.3 11.3 0.02 0.02 0.02 96 1002.8
20260503190049 35 68 3.5 12.2 0.02 0.02 0.02 95 1004.3
20260503184554 35 137 4.3 10.4 0.02 0.02 0.02 95 1004.3
20260503183043 35 70 2.6 12.2 0.00 0.01 0.01 94 1005.9
20260503181555 36 101 4.3 10.4 0.00 0.01 0.01 93 1006.3
20260503180048 37 106 2.6 8.7 0.00 0.01 0.01 93 1007.0
20260503174544 38 100 3.5 8.7 0.00 0.01 0.01 93 1008.2
20260503171516 38 87 3.5 6.1 0.00 0.01 0.01 91 1008.9